RH
46 47 47 46 45 44 41 38 34 31 30 30 30 29 27 26 23 24 44 76 98 101 99 99 94 84 91 99 82 73 88 97 94 94 99 100 97 82 68 79 92 92 93 94 95 94 94 98 99 98 99 101 98 93 96 94 83 74 70 68 66 63 61 59 57 54 50 47 45 45 44 44 44 43 41 39 37 35 33 32 30 27 22 18 15
52 52 53 53 52 51 48 46 43 40 38 36 35 35 33 31 30 26 25 38 68 95 101 99 101 93 85 91 93 83 79 89 95 97 99 100 97 81 66 79 97 97 98 100 98 96 96 99 99 98 98 99 101 98 98 100 93 85 79 76 76 70 62 59 58 57 55 51 49 48 46 44 43 41 39 37 35 34 32 30 26 22 17 12 9
59 59 58 57 55 54 53 52 50 48 46 45 44 43 43 40 38 36 32 28 34 61 91 101 100 99 93 83 86 96 91 82 80 85 94 98 100 92 70 69 91 100 99 99 100 99 98 100 99 99 98 98 100 99 99 100 98 94 88 87 90 85 71 58 54 57 58 57 54 50 47 46 45 42 39 36 33 30 29 26 23 18 12 9 6
63 62 61 59 57 56 56 55 54 53 53 52 51 50 49 49 48 47 46 44 37 38 60 89 101 100 100 93 87 95 99 92 83 73 81 94 99 102 89 71 77 93 100 99 99 100 100 100 99 99 100 99 99 100 100 100 100 99 96 96 96 93 84 69 60 61 59 56 55 52 49 47 44 42 40 36 32 28 24 21 19 15 9 6 5
65 63 62 61 60 59 59 58 58 57 56 55 54 53 53 52 53 55 54 54 54 49 46 63 88 99 101 100 98 98 95 96 100 88 83 94 99 101 100 86 75 81 95 100 99 99 100 100 100 100 100 100 100 100 99 99 100 100 99 99 97 97 97 87 75 68 64 62 60 56 53 49 45 44 42 37 33 27 22 18 15 12 8 6 5
67 66 66 65 64 63 63 62 62 61 59 58 57 56 57 58 57 57 58 57 57 58 55 52 64 82 94 100 101 101 97 93 100 102 96 98 100 99 100 97 87 80 86 96 100 100 99 99 99 100 100 100 100 100 99 99 100 100 100 100 100 99 101 97 85 77 74 71 67 59 54 51 49 47 44 38 34 29 23 18 13 9 6 5 6
71 71 71 71 70 69 68 67 65 64 63 62 62 61 59 60 60 59 58 58 57 56 58 57 55 59 70 86 94 96 100 100 98 101 101 98 98 100 99 100 98 93 90 91 93 95 99 100 99 99 100 100 100 100 99 100 99 100 100 99 100 100 100 99 92 88 83 74 71 69 60 52 50 50 46 40 35 30 24 18 12 8 6 5 6
79 79 79 79 79 77 76 75 72 71 70 68 66 64 63 61 60 60 58 57 58 56 55 57 57 56 55 61 72 77 83 94 99 100 101 99 98 100 100 100 99 98 98 97 93 89 93 99 100 99 99 99 100 100 100 100 99 100 100 99 100 100 100 99 96 95 88 80 83 85 75 62 55 51 49 45 39 31 24 18 12 7 5 5 5
90 89 87 86 85 84 82 81 79 78 76 74 73 70 67 65 61 58 57 56 56 57 57 55 53 54 54 52 54 58 61 69 80 89 95 97 98 100 101 100 99 96 97 100 100 93 89 93 98 100 100 99 98 98 99 100 100 99 99 100 100 100 100 99 99 97 90 89 94 95 92 85 74 62 53 48 43 36 26 19 14 9 6 6 5
90 86 82 80 79 78 77 76 75 74 73 72 72 72 70 68 65 60 55 53 52 53 55 56 55 52 52 52 50 51 51 52 56 63 73 84 93 98 100 100 98 96 96 98 101 100 95 94 98 100 100 100 98 95 94 96 98 99 99 100 100 100 100 100 100 99 96 96 96 91 90 90 87 78 66 54 46 39 33 23 17 14 14 13 10
78 74 71 69 67 66 66 66 66 65 64 63 63 64 65 64 64 63 58 54 49 48 47 48 52 53 52 52 51 49 49 49 49 50 54 64 76 85 90 94 98 98 98 99 100 100 99 99 100 100 100 100 100 98 94 92 93 97 99 99 100 100 99 100 100 100 100 100 97 88 79 76 77 75 75 75 63 46 38 30 20 17 18 17 15
62 60 58 56 56 54 53 52 51 51 51 51 50 50 52 53 55 56 57 56 52 49 46 43 43 44 46 49 50 50 49 47 47 48 48 50 56 61 64 70 80 90 96 99 101 101 99 99 99 100 100 100 100 100 99 97 94 96 96 95 97 100 100 99 99 99 100 100 99 93 83 74 65 58 63 80 84 64 44 35 26 18 16 15 13
46 44 43 42 43 41 41 39 37 37 36 36 36 34 34 34 37 40 43 46 48 48 46 45 42 39 38 39 42 45 48 47 46 44 44 44 44 45 44 45 52 64 77 88 96 99 98 99 100 99 100 100 100 100 100 100 99 98 97 92 92 97 100 100 99 99 100 100 100 99 94 81 64 54 53 67 88 85 59 41 34 27 21 17 14
37 36 35 33 32 32 32 31 29 28 27 26 25 24 23 22 22 24 26 28 31 35 37 39 39 39 36 35 35 35 38 42 44 44 43 41 39 39 39 39 39 43 53 65 78 87 92 96 100 100 99 99 100 100 100 100 100 99 100 97 94 95 99 100 99 99 100 100 99 100 100 93 79 70 63 61 81 94 79 54 41 36 32 27 25
43 46 47 43 38 36 33 31 28 24 22 20 20 18 18 18 18 17 17 18 18 20 22 25 27 29 30 31 32 32 32 32 35 39 42 41 39 36 35 36 37 38 40 45 54 66 76 82 91 98 100 100 99 99 100 100 100 99 99 100 99 98 99 100 99 99 100 100 100 99 99 100 95 87 77 68 76 93 94 75 54 45 40 35 33
53 59 63 62 55 52 48 40 31 25 23 21 21 20 19 19 18 16 15 14 14 14 14 15 16 17 19 21 24 26 28 28 29 30 33 38 40 38 34 32 33 35 36 37 39 45 54 63 73 84 92 97 99 100 100 100 100 100 99 99 100 100 100 100 100 100 100 99 100 101 99 99 100 98 92 87 89 96 100 91 72 58 50 44 40
55 60 64 68 70 72 64 48 36 32 31 30 27 26 26 24 21 19 18 17 15 15 14 13 13 13 13 14 15 17 19 22 24 25 25 28 33 37 37 34 32 31 32 33 33 34 38 44 52 63 74 84 94 100 101 100 99 99 100 100 99 100 100 100 100 100 100 100 99 100 101 99 99 100 100 98 99 99 100 98 88 75 64 53 48
71 78 83 86 89 88 74 53 44 42 39 37 36 36 37 37 34 29 27 24 22 20 18 18 17 15 13 12 13 13 14 14 16 18 20 20 21 26 32 36 35 33 30 30 31 31 32 33 36 43 52 63 75 87 95 99 100 99 99 100 100 100 100 100 100 100 99 100 100 100 100 100 100 100 100 100 100 100 100 100 97 91 83 70 60
90 93 97 97 96 92 78 62 53 49 44 43 44 47 52 56 54 50 44 38 33 29 26 24 22 20 17 15 14 13 14 14 13 13 14 15 16 16 19 25 31 34 33 31 30 29 31 31 31 32 37 44 54 66 77 87 96 100 100 99 100 100 99 99 100 100 100 99 100 101 99 98 99 100 100 100 100 100 100 100 100 100 97 91 80
96 96 99 97 94 88 77 65 56 50 50 51 54 57 61 64 63 62 59 52 45 39 35 31 27 23 21 19 18 17 16 17 17 16 13 13 13 13 12 14 19 25 29 31 31 29 29 30 30 30 31 34 40 48 56 64 77 91 99 101 100 99 99 100 99 99 100 100 100 100 100 99 99 99 100 100 99 100 100 100 100 100 100 99 95
94 96 99 95 88 80 69 60 55 55 56 56 58 61 62 66 67 66 62 55 49 44 42 40 37 33 30 27 25 24 23 24 24 23 21 17 16 15 14 13 13 15 19 24 27 28 28 28 28 29 29 30 32 36 42 46 53 67 84 95 100 100 99 99 100 100 99 100 101 98 95 96 100 100 99 100 100 100 100 100 100 100 100 100 100
88 87 88 85 80 73 63 58 58 61 60 56 56 57 60 63 67 68 65 60 56 52 50 49 46 43 41 39 36 34 35 37 36 35 33 29 24 21 19 17 15 14 14 16 19 22 25 26 26 26 27 27 28 29 32 37 42 49 59 72 86 98 101 99 99 101 100 100 101 99 94 93 97 100 100 99 100 100 100 100 99 100 100 99 100
77 77 78 78 75 66 58 57 60 62 61 61 62 65 67 69 69 69 67 65 62 58 56 55 52 48 46 45 43 44 49 51 50 50 47 43 38 32 28 25 20 17 16 15 15 17 19 22 23 24 24 25 26 26 26 28 33 39 44 48 57 74 92 100 99 99 100 100 100 100 99 97 97 100 100 99 100 100 100 100 99 99 100 100 100
70 74 76 74 67 59 56 57 60 62 65 69 72 73 71 69 67 66 64 62 60 56 54 54 55 54 52 52 51 54 63 68 67 65 59 51 46 41 37 33 27 22 20 18 18 16 16 18 19 21 22 23 23 23 24 24 25 30 35 38 39 45 62 84 98 100 99 99 100 100 100 100 100 100 99 99 100 100 100 100 99 99 100 100 100
67 68 68 64 59 58 61 63 64 68 72 75 76 73 68 64 62 61 60 60 58 55 52 52 55 58 59 61 63 65 71 75 77 78 73 66 60 52 46 41 36 30 26 24 22 20 18 17 16 17 19 20 21 21 21 22 22 23 27 31 34 34 38 53 76 94 100 100 99 100 100 99 100 101 99 99 100 100 100 100 100 100 100 100 100
60 59 58 57 57 62 66 69 73 76 77 78 77 73 67 62 61 61 61 61 60 58 56 55 56 58 59 61 64 66 67 68 70 72 73 73 72 67 61 55 48 44 40 34 30 25 22 20 18 17 17 17 19 20 20 20 20 20 22 25 30 33 32 34 46 67 88 99 100 99 100 100 100 100 100 99 100 100 100 100 100 99 99 99 100
54 55 55 56 61 66 70 75 78 79 79 79 77 73 68 63 61 62 64 64 63 62 62 60 58 58 58 58 59 60 61 61 61 61 61 61 61 61 60 56 51 49 46 42 38 33 29 24 20 17 17 17 17 17 19 20 19 18 18 20 24 28 31 31 31 39 57 81 95 98 98 100 100 99 99 99 100 100 100 100 100 100 100 100 100
51 53 56 61 67 71 74 79 81 80 79 77 73 70 68 66 64 65 66 67 67 65 64 63 62 61 59 59 59 60 61 61 60 58 57 55 54 54 54 53 50 47 44 42 41 38 34 30 25 19 17 17 17 16 17 18 18 18 17 16 18 23 28 29 28 29 34 49 71 88 95 97 99 100 99 99 100 100 100 100 99 100 101 101 100
51 55 61 68 75 80 83 84 81 78 77 75 72 70 69 69 68 68 69 69 68 66 65 65 65 64 63 62 62 62 64 65 63 60 57 56 55 57 58 58 57 54 51 48 46 45 43 39 31 24 19 16 16 16 16 16 17 17 17 15 14 16 24 29 27 26 27 30 42 62 82 92 97 99 99 100 100 99 100 100 100 100 100 101 101
53 60 67 75 84 91 92 86 80 77 78 77 75 74 73 72 71 71 71 71 70 68 67 68 68 68 67 66 65 66 66 66 66 64 63 61 59 60 62 63 64 63 60 58 56 55 52 46 38 31 25 19 16 15 15 15 16 16 16 17 15 12 17 27 30 26 24 25 27 35 54 76 90 96 97 98 100 100 100 99 99 100 100 100 100
59 68 78 86 91 91 88 85 81 81 82 82 79 78 77 76 76 75 74 73 73 72 72 73 73 72 72 71 70 70 70 70 69 69 68 67 65 64 65 67 69 69 67 65 65 62 59 54 46 37 29 22 17 16 15 15 15 16 15 15 15 13 10 18 30 31 25 22 23 24 29 44 66 84 93 95 96 98 100 100 100 99 100 100 100
67 77 86 90 89 87 86 86 86 87 87 87 83 81 80 78 78 78 77 78 78 78 78 78 77 77 76 75 74 74 74 74 73 73 73 73 73 73 73 73 73 73 73 73 73 71 69 64 57 46 36 28 23 21 21 20 17 16 17 15 15 15 12 12 23 33 32 25 22 23 23 25 35 54 76 90 96 97 98 99 100 100 99 99 100
82 87 88 88 85 85 87 88 91 93 92 90 87 84 82 79 78 80 81 81 81 80 81 80 81 81 79 78 78 77 77 77 76 76 77 78 79 79 79 80 80 82 84 84 84 83 80 77 74 68 59 49 40 34 30 28 23 18 18 18 16 15 13 12 16 28 36 32 25 23 23 23 23 28 44 65 84 95 100 100 99 100 101 100 99
91 90 88 88 85 85 88 91 95 94 91 90 89 87 85 82 82 83 82 81 80 81 83 83 83 83 82 82 82 80 79 79 79 81 81 82 83 83 85 88 90 91 93 92 92 91 89 87 87 86 83 75 62 50 44 40 32 24 22 23 22 20 17 16 17 24 33 37 33 26 23 23 24 24 25 34 52 73 92 101 101 100 101 101 100
90 90 89 90 88 87 88 91 93 92 90 89 89 88 87 85 84 85 85 84 84 84 86 86 85 85 85 85 85 83 82 82 83 84 85 86 87 87 88 90 92 94 96 96 96 95 94 93 93 93 92 86 75 67 67 64 53 41 36 33 31 28 25 22 21 24 30 36 37 32 27 24 24 25 26 26 29 40 60 82 97 102 101 100 100
93 94 92 90 90 90 92 92 92 91 90 90 90 91 89 86 86 89 89 88 89 88 88 87 86 87 88 87 87 87 87 87 86 87 88 88 88 88 88 90 91 92 95 97 98 99 97 95 94 93 91 86 81 81 84 85 79 69 63 61 58 51 45 36 27 23 27 34 38 37 33 29 26 25 27 28 28 27 32 46 65 82 94 100 101
96 96 95 94 94 95 94 93 91 91 93 95 95 94 92 89 89 91 92 92 92 90 88 88 88 88 88 89 90 90 90 89 89 90 89 88 87 87 89 92 93 93 95 97 99 101 100 98 96 96 94 89 87 89 93 97 96 92 91 92 84 66 51 39 29 25 29 37 42 41 37 34 30 27 26 28 30 30 29 29 34 46 62 79 91
93 94 93 94 96 97 96 94 92 92 96 99 98 95 93 91 91 93 94 93 92 89 87 88 89 89 89 91 92 92 91 91 91 91 90 88 88 90 92 95 97 96 96 98 100 100 100 100 99 99 100 96 92 95 101 102 101 100 102 102 92 75 58 47 40 40 43 45 46 44 42 39 36 32 31 30 30 31 31 29 28 29 33 43 55
83 88 93 96 97 96 95 94 94 94 97 99 98 96 94 92 93 94 94 92 91 89 89 90 92 91 91 92 93 93 94 93 92 91 90 89 90 92 93 96 98 98 98 99 101 100 99 100 100 99 100 99 97 99 102 101 100 100 101 101 100 96 85 69 60 59 58 54 52 49 45 42 40 39 38 36 34 32 30 29 29 30 29 27 29
67 73 84 93 98 97 93 90 91 94 97 99 100 99 97 95 94 94 94 92 92 92 93 94 94 94 93 93 93 94 95 96 94 91 89 90 92 94 95 96 97 99 100 101 101 100 100 100 100 100 100 100 99 100 100 100 100 100 100 99 101 103 97 83 73 70 66 61 58 54 50 47 46 45 44 43 40 37 34 31 30 29 27 24 25
70 73 77 83 89 93 91 87 87 92 96 101 103 103 101 98 95 94 94 92 93 96 98 97 97 97 96 95 94 94 95 97 96 93 90 91 95 98 98 97 98 99 100 101 101 101 100 100 100 100 100 100 100 100 100 100 100 100 100 101 99 100 99 93 87 82 77 73 69 63 58 56 54 51 50 48 46 43 40 36 33 30 26 25 27
67 72 76 79 78 76 75 77 81 87 95 101 104 103 102 100 98 97 96 94 96 99 101 101 101 100 99 98 97 95 94 96 98 96 92 92 97 101 100 99 100 100 99 101 102 101 100 100 100 100 100 100 100 100 99 100 100 100 100 100 99 99 99 99 100 98 90 81 73 66 65 66 63 58 56 54 51 49 46 42 37 33 30 30 31
54 60 68 74 71 62 59 63 71 81 94 102 103 101 102 101 100 99 97 96 98 102 103 104 104 103 101 101 99 97 96 98 100 98 94 94 98 100 100 100 100 100 100 101 101 101 100 100 100 100 100 100 100 100 100 100 100 100 100 100 100 100 100 101 102 99 91 80 71 69 75 78 73 67 64 61 58 55 52 48 44 40 38 37 37
46 52 56 60 58 54 52 55 61 75 92 102 104 102 102 102 102 102 100 98 100 103 104 104 104 104 104 103 102 101 101 101 101 99 96 96 98 99 100 101 101 100 100 100 100 100 100 100 100 100 100 100 100 100 100 100 100 100 100 100 100 100 100 101 101 99 96 89 83 82 85 83 77 73 71 68 65 61 57 55 53 52 51 50 49
41 45 47 48 48 50 53 56 62 75 91 100 103 105 105 104 104 103 101 98 100 103 104 103 103 104 104 102 101 104 104 102 101 100 97 96 98 98 99 101 102 101 100 100 101 100 100 100 100 100 100 100 100 100 100 100 100 100 100 100 100 100 100 100 101 102 101 95 88 88 90 85 80 77 73 70 67 65 63 62 61 59 57 56 55
39 42 43 44 46 51 58 62 69 82 92 96 99 104 106 106 105 104 102 100 100 102 104 104 104 105 104 102 101 103 104 103 102 101 100 99 99 98 98 100 101 100 100 100 101 101 101 100 100 100 100 100 100 100 100 100 100 100 100 100 100 100 100 100 99 101 102 97 93 94 96 91 85 81 76 71 70 69 68 67 65 62 60 58 57
41 43 44 45 46 52 59 65 72 85 92 93 95 102 106 106 105 104 103 102 101 101 102 103 104 104 103 102 101 102 104 103 102 102 101 100 100 99 98 99 100 100 100 101 102 101 101 101 100 100 100 100 100 100 100 100 100 100 100 100 100 100 100 100 100 100 102 102 101 102 102 98 94 90 84 78 76 75 74 70 68 67 67 66 66
42 43 43 43 46 52 57 62 72 85 92 92 96 102 106 105 105 104 104 103 102 101 101 102 103 104 103 102 101 102 103 103 101 101 101 100 101 100 99 100 102 101 100 101 102 102 101 101 101 100 100 100 100 100 100 100 100 100 100 100 100 100 100 100 100 100 101 104 105 105 104 102 100 97 93 88 86 85 82 79 77 78 78 78 78
40 39 40 43 48 53 56 62 72 83 89 92 97 104 106 106 105 105 105 104 101 99 100 102 103 103 102 103 103 103 103 104 103 101 101 101 101 100 99 100 103 103 100 100 102 102 101 101 102 101 100 100 100 100 100 100 100 100 100 100 100 100 100 100 100 100 101 104 105 105 103 102 101 100 98 96 95 93 89 87 87 88 88 89 87
36 38 41 45 49 52 56 63 73 81 87 92 98 103 107 107 106 105 105 103 100 97 98 100 100 101 101 101 102 103 103 103 103 103 102 102 102 102 99 97 99 101 100 100 101 101 101 102 102 101 101 101 100 101 101 100 100 100 100 100 101 101 100 100 100 100 100 103 105 104 102 101 101 100 99 100 100 97 93 92 94 94 93 92 89
34 38 43 45 47 50 55 62 70 76 82 89 96 103 107 105 104 104 104 103 100 97 96 96 97 98 98 99 100 102 101 101 102 103 103 101 101 103 102 99 98 99 98 99 100 101 101 102 103 103 102 101 100 100 100 100 100 100 99 99 102 103 102 101 100 99 99 102 105 104 102 101 100 99 98 100 103 102 99 97 97 96 95 93 90
Wind_Speed
35 33 31 28 27 25 25 25 26 26 26 26 26 25 26 28 31 37 43 47 46 44 42 42 43 43 42 42 44 45 42 39 40 39 33 30 33 35 36 41 43 43 45 46 46 45 42 38 38 38 36 34 34 34 30 24 24 26 27 27 28 28 29 30 32 33 34 35 35 35 35 36 37 37 37 37 38 37 37 36 36 36 35 36 36
28 27 25 23 21 20 19 19 19 20 20 21 21 21 21 23 25 28 34 41 46 47 44 41 40 43 45 43 42 45 47 44 41 40 39 36 35 35 36 38 39 40 43 46 46 46 44 42 41 41 39 35 34 35 33 29 28 29 30 29 28 28 28 30 32 33 34 34 33 33 35 36 37 37 37 38 39 38 37 36 35 36 37 37 38
22 20 20 19 18 17 16 16 15 15 14 15 15 15 16 17 18 21 24 30 37 44 47 43 38 39 45 47 44 42 42 45 48 46 43 40 36 36 38 38 39 40 44 48 47 45 46 44 42 41 40 37 36 38 38 35 33 32 32 31 29 29 29 30 31 32 32 32 33 34 35 35 36 37 38 38 38 37 37 36 37 37 38 39 39
16 15 15 15 14 14 14 13 12 11 10 10 10 11 11 12 12 13 14 18 23 31 41 44 41 37 37 42 47 46 41 39 44 49 48 45 41 39 40 41 41 41 43 46 47 46 46 45 43 42 41 39 39 40 40 37 35 34 33 32 32 32 30 29 29 29 30 32 33 35 35 36 37 37 36 35 36 36 38 38 39 39 40 40 40
10 10 10 10 11 11 11 11 11 10 10 9 8 8 8 8 8 9 9 10 12 16 25 36 43 42 36 34 38 45 48 43 37 41 46 46 45 42 40 42 44 44 43 43 46 47 47 45 45 44 42 40 40 41 42 40 37 36 35 35 35 35 32 30 29 30 31 30 31 34 35 37 36 33 31 33 35 37 38 39 40 40 41 42 41
8 9 9 9 10 10 10 10 11 11 11 11 10 10 9 9 8 9 9 9 8 9 11 19 31 42 43 39 35 36 45 47 39 36 39 40 43 45 44 44 46 46 45 45 46 47 46 46 46 46 45 44 41 42 44 44 42 41 39 38 37 37 35 33 32 32 32 31 31 33 34 36 34 30 31 33 34 36 38 39 40 41 42 43 42
9 10 10 11 11 11 11 11 12 12 13 13 13 13 12 11 11 10 11 11 10 10 9 10 14 25 36 40 38 35 37 41 36 32 33 32 34 41 45 46 47 48 48 48 48 48 47 46 48 49 48 47 45 45 46 46 46 45 43 41 40 40 40 39 37 35 34 34 33 31 31 34 35 33 34 34 34 35 37 39 41 42 43 43 43
11 12 12 13 13 14 14 14 14 14 14 15 15 16 16 16 15 15 15 14 13 13 12 12 11 12 18 26 32 33 33 36 36 33 31 29 27 30 36 40 42 43 46 49 51 51 50 48 49 51 50 50 49 48 47 47 47 47 46 45 43 44 44 44 41 39 37 36 33 31 30 31 33 34 34 35 36 36 36 38 40 41 42 42 42
16 16 17 18 18 19 20 20 20 20 19 19 19 19 20 20 20 21 20 20 18 17 15 15 15 14 14 16 21 25 26 28 32 34 33 31 29 27 28 33 37 36 36 44 49 51 53 52 51 51 51 51 50 49 49 49 49 48 48 48 47 46 46 46 45 43 42 39 35 33 33 32 33 34 35 37 38 38 38 38 38 39 41 41 40
21 22 24 25 25 26 26 27 27 27 27 26 25 25 24 24 24 24 24 24 23 22 21 20 18 18 18 17 18 21 23 24 25 28 31 33 34 33 31 31 33 32 29 33 41 47 51 53 53 53 52 52 52 52 52 50 50 51 50 49 49 48 48 47 46 45 45 42 39 38 37 37 38 36 36 37 38 39 39 38 38 38 38 37 37
27 28 29 30 30 31 31 32 32 32 33 33 33 32 31 30 30 29 28 27 26 26 26 26 25 23 22 22 21 21 23 25 26 27 28 31 34 37 38 37 36 35 31 29 32 37 41 45 50 52 53 52 52 53 54 53 53 52 51 50 49 49 49 48 48 47 47 45 43 42 41 41 42 40 38 37 37 39 39 39 38 38 38 37 37
34 34 35 35 35 35 35 36 37 37 38 38 38 38 38 37 37 36 35 33 32 30 29 29 29 29 29 27 26 26 25 26 28 29 30 30 31 32 34 36 36 37 36 33 32 33 33 35 39 45 48 49 49 51 53 54 54 53 52 51 50 49 49 49 48 48 49 48 47 45 43 42 42 41 40 38 38 40 40 39 39 39 40 40 39
40 40 40 40 40 41 41 41 42 42 42 43 43 43 44 44 43 42 42 41 39 37 35 34 33 33 33 33 31 30 30 29 29 30 32 32 32 32 32 32 31 32 34 35 34 35 34 33 33 35 39 43 46 48 50 52 54 54 54 53 51 49 48 48 48 48 49 50 50 48 45 44 43 42 42 41 40 41 43 43 42 42 42 42 41
44 44 43 44 44 44 44 44 44 45 45 45 46 46 47 47 48 48 47 47 46 46 44 43 41 39 37 37 36 35 34 33 33 32 33 34 34 35 36 37 35 33 32 33 34 35 37 37 35 35 35 38 40 44 47 49 52 53 54 54 53 51 49 48 49 50 51 52 52 52 49 46 45 44 44 44 43 43 45 46 46 45 45 45 45
44 44 43 44 45 45 45 45 45 46 46 46 46 45 45 46 47 48 49 50 50 50 50 50 49 47 45 42 41 40 39 37 37 36 35 36 36 36 37 39 41 40 37 35 35 35 36 38 38 38 38 37 38 39 42 45 49 51 52 53 53 52 51 51 51 53 54 55 55 55 53 51 49 47 46 46 46 46 47 48 48 48 47 48 47
44 43 43 44 45 45 45 44 45 46 46 46 45 43 43 42 43 44 45 47 48 49 50 51 52 52 51 49 47 45 44 43 41 40 39 39 39 38 38 39 41 42 42 41 39 38 38 38 39 40 40 40 40 39 40 41 44 47 49 50 52 53 52 52 52 52 53 55 57 58 57 55 54 52 50 48 48 49 49 49 49 49 48 48 49
43 43 43 44 45 44 44 43 44 46 46 47 46 43 40 38 39 40 40 41 43 44 46 47 49 51 52 52 51 50 49 49 47 46 45 44 43 42 41 40 41 42 43 44 43 42 41 41 40 40 41 42 42 42 43 43 43 44 46 48 49 51 53 52 51 51 50 52 55 59 60 59 57 55 54 53 53 52 50 50 50 49 50 50 52
41 42 42 43 44 44 44 44 45 48 48 47 45 42 38 36 35 36 37 38 39 40 42 43 44 47 49 50 51 52 51 51 51 51 51 49 48 47 45 44 44 43 43 44 45 45 45 44 43 42 43 43 44 44 45 46 46 45 45 46 47 49 52 52 51 50 49 49 52 55 58 59 59 57 56 56 56 54 51 50 50 50 50 51 52
40 42 43 43 45 45 45 46 49 51 49 45 42 39 35 33 33 33 35 37 38 39 40 41 42 43 45 47 48 50 51 50 51 51 53 53 52 51 50 49 48 47 47 46 46 46 46 47 47 47 46 46 46 46 46 47 48 47 47 46 46 47 50 51 51 51 50 49 50 52 53 55 57 58 59 59 58 56 54 53 51 51 51 51 51
43 44 44 45 45 46 47 50 52 51 46 42 38 35 32 31 32 33 35 37 39 39 39 39 40 41 42 44 45 46 48 48 48 49 50 52 52 52 52 52 52 51 51 50 49 48 48 48 49 50 50 49 48 48 49 49 48 48 48 48 48 48 49 50 51 51 51 51 50 51 51 52 54 57 60 61 61 60 57 56 54 53 52 52 52
44 44 44 45 46 48 51 53 51 46 42 39 35 34 33 33 33 34 37 39 40 38 38 38 39 39 41 42 43 44 45 45 45 46 47 49 50 50 50 51 52 54 54 54 54 53 52 50 49 49 51 52 51 50 50 51 51 49 49 50 50 51 50 50 51 51 52 52 53 53 53 53 52 54 57 60 62 62 60 58 57 56 56 55 54
43 43 44 46 48 51 54 52 48 44 40 38 36 36 36 36 37 38 40 41 41 39 38 38 39 39 40 41 42 43 43 44 44 44 45 46 48 49 49 48 49 51 53 56 57 56 56 55 53 51 50 51 52 53 52 53 54 53 51 51 51 52 52 51 51 51 52 53 54 55 56 56 55 54 55 57 60 61 61 60 60 60 59 57 56
44 45 46 48 51 53 52 49 45 43 41 40 40 40 40 41 41 42 43 42 41 40 38 39 40 40 40 41 41 42 43 43 44 45 46 46 48 49 49 50 50 50 50 52 56 58 58 58 57 56 54 53 52 53 53 54 54 55 55 53 52 52 52 52 52 52 52 52 54 55 56 57 57 57 56 57 58 60 60 61 61 61 61 60 58
48 49 50 51 52 51 48 45 43 42 41 42 44 45 45 45 44 44 43 43 41 40 40 40 41 41 41 41 42 42 43 44 45 46 48 48 49 50 50 51 52 53 52 51 52 55 57 59 59 59 59 58 56 54 53 54 54 55 57 57 55 53 53 53 53 53 53 53 54 55 55 56 57 58 58 58 58 58 59 59 59 58 59 60 60
51 52 52 51 50 47 43 41 41 41 43 44 46 48 47 46 45 44 43 42 42 41 41 41 41 42 43 43 43 44 45 46 47 49 50 50 51 51 52 52 53 54 54 54 53 53 54 57 58 59 60 61 61 58 56 55 55 55 56 58 58 57 55 54 54 54 54 54 55 55 55 55 56 58 59 59 59 58 58 58 58 57 57 57 58
53 51 50 48 46 43 40 40 41 43 45 47 48 48 47 46 44 43 42 41 41 41 41 42 43 44 44 45 46 47 48 49 50 52 53 53 53 54 54 54 55 55 56 56 56 55 55 57 57 58 59 60 62 63 61 58 57 56 55 57 59 60 59 57 56 55 55 55 55 56 56 56 57 58 58 58 59 59 59 58 57 57 58 58 59
51 49 48 46 43 41 41 42 44 46 47 48 48 47 46 45 43 42 42 42 42 42 42 43 44 46 47 48 49 50 52 53 54 55 56 57 57 57 57 57 57 58 58 59 60 60 60 61 61 59 58 58 60 63 64 63 60 58 57 56 57 60 61 60 59 58 57 56 55 56 56 57 58 58 58 58 59 59 59 59 58 57 57 57 58
48 48 47 44 42 42 44 45 47 48 49 48 47 45 45 44 44 43 43 43 43 43 43 44 45 46 48 49 50 51 53 55 56 57 58 58 58 58 59 59 59 60 60 60 62 63 64 65 65 62 60 59 59 61 64 65 64 62 60 58 57 58 61 62 61 60 59 58 57 56 56 56 57 58 58 58 59 59 59 59 59 58 58 58 59
47 47 45 43 44 45 46 48 50 50 49 48 46 45 45 44 44 44 44 43 43 44 44 45 46 47 47 48 48 49 50 53 55 56 56 56 56 56 56 57 57 58 58 58 59 60 62 63 63 62 61 61 60 59 61 64 66 64 62 61 59 58 59 61 61 61 61 60 59 58 57 56 56 56 57 58 58 59 60 60 60 59 60 61 61
48 46 44 44 45 47 49 51 51 49 48 48 47 46 46 45 45 45 44 44 44 44 44 45 46 46 47 47 47 47 48 50 52 53 54 54 53 53 53 53 53 54 54 54 54 54 55 56 58 59 59 60 60 59 59 61 65 66 64 63 62 59 59 59 60 61 61 61 61 60 59 58 57 56 55 56 56 57 58 60 60 60 61 62 62
47 46 45 46 47 50 51 52 51 49 47 47 47 47 47 46 46 46 45 45 44 45 45 45 46 46 46 46 46 46 47 48 49 50 51 52 51 51 50 50 50 51 51 51 50 50 51 52 54 56 57 57 57 57 57 58 61 64 64 64 64 62 60 60 59 60 61 61 61 61 60 60 59 58 57 55 55 55 55 57 58 59 60 61 62
47 47 47 48 49 51 51 51 50 48 47 47 47 47 46 46 46 46 45 45 45 45 45 45 45 45 45 45 45 44 44 45 46 46 47 48 48 48 48 47 48 48 49 48 48 48 48 49 51 53 54 55 54 53 54 56 58 60 61 62 64 64 62 60 60 59 60 60 61 61 60 60 60 59 58 57 55 54 53 53 54 56 58 60 60
48 48 49 50 50 50 50 50 49 48 48 47 47 46 46 46 46 45 45 45 45 44 44 44 43 43 43 43 43 43 43 43 43 43 43 43 44 44 44 44 44 45 45 46 46 46 46 47 48 49 50 51 50 50 50 52 54 56 57 59 62 64 63 62 61 60 59 60 60 60 61 60 60 60 59 58 57 55 54 53 52 53 55 57 58
48 49 50 50 50 49 49 49 48 47 47 46 45 45 45 45 44 44 44 43 43 43 43 43 42 42 41 41 41 41 41 41 40 40 40 40 40 40 40 40 41 41 42 43 44 44 45 45 46 47 48 48 48 47 47 49 51 52 52 54 58 61 63 63 61 60 59 59 59 60 61 61 60 60 60 59 58 57 56 55 53 53 53 54 55
49 49 49 49 49 49 49 48 47 47 45 44 44 45 45 44 44 43 43 43 43 42 42 42 41 41 40 40 40 40 39 38 38 37 37 37 37 37 37 37 38 39 40 41 42 43 44 44 45 46 47 47 46 45 44 45 46 47 48 50 53 57 60 61 62 60 59 59 58 59 60 60 60 60 59 59 59 58 57 57 56 55 54 53 54
48 49 49 49 48 48 48 48 47 46 45 44 44 44 44 44 43 43 42 42 41 41 41 41 40 39 39 38 38 38 37 36 35 35 35 35 35 35 34 34 35 36 37 38 39 41 43 44 45 45 46 46 44 42 41 41 42 43 44 45 48 51 55 59 62 62 60 59 58 57 57 59 59 60 59 59 58 58 58 58 58 57 57 55 54
47 47 48 47 47 47 47 47 47 45 44 44 44 44 44 44 42 42 41 40 40 39 39 39 38 37 37 36 36 36 35 34 33 33 33 33 32 32 30 31 32 32 32 33 34 35 37 39 41 42 43 43 41 38 38 38 39 40 42 44 46 49 54 58 61 62 60 58 56 55 55 57 58 58 58 58 57 57 57 57 57 58 58 57 57
46 47 47 46 46 47 47 47 46 45 43 43 43 43 44 43 42 41 40 39 39 38 37 37 37 36 35 34 35 35 34 33 32 32 32 31 30 29 29 29 30 31 30 30 30 30 31 31 33 35 36 38 37 35 34 35 36 37 39 41 43 46 50 54 56 57 56 56 54 53 53 54 55 56 56 57 57 56 57 57 56 56 56 57 57
45 46 47 47 47 47 47 47 46 45 44 43 43 43 43 42 42 40 39 39 38 37 37 36 35 35 34 34 34 34 33 32 31 30 30 30 29 29 28 29 29 30 29 28 28 28 28 27 27 28 29 31 31 30 30 30 31 32 33 36 38 40 44 48 50 51 51 52 52 51 51 51 52 52 53 55 56 56 55 55 55 55 56 56 55
45 45 46 47 48 48 47 46 46 45 44 44 43 43 42 42 41 40 39 38 38 37 36 36 35 33 33 33 33 33 32 31 30 29 29 29 29 29 28 29 29 28 28 27 26 27 26 25 24 25 25 26 27 27 26 26 27 28 29 31 34 37 40 43 45 46 47 48 48 48 48 48 48 48 49 50 52 53 54 54 54 54 55 54 53
46 46 47 48 49 49 48 46 45 45 44 44 44 44 43 42 41 39 38 37 37 36 35 35 34 32 31 31 32 32 32 30 29 29 29 29 29 29 28 28 28 27 27 25 25 25 24 23 22 22 23 23 24 25 24 24 24 26 28 30 33 35 37 38 39 40 42 42 43 44 43 43 44 45 45 45 47 49 51 52 52 53 53 52 51
47 48 48 49 50 49 48 46 45 44 44 44 44 44 43 42 41 39 38 37 36 35 34 33 32 31 30 30 30 31 31 30 28 28 29 28 28 28 28 26 26 26 25 25 23 23 23 22 21 21 21 22 23 24 23 23 24 26 28 30 32 33 33 33 34 35 37 39 40 40 40 39 40 41 42 42 43 44 46 48 49 50 51 51 51
48 49 50 51 52 51 49 47 46 44 43 43 43 43 43 42 40 39 38 37 35 35 33 32 31 30 29 29 29 29 29 29 28 28 28 27 27 27 26 25 25 25 24 24 23 22 22 21 20 19 19 20 21 22 22 22 24 25 26 27 28 29 29 30 31 33 34 36 37 36 35 35 37 38 39 39 40 41 42 43 44 45 46 47 47
50 50 51 52 53 53 51 49 46 45 44 43 42 42 41 40 39 38 38 36 35 34 32 31 30 29 29 28 28 27 27 27 27 27 27 26 25 25 25 24 24 24 23 22 22 22 21 20 19 18 18 18 19 19 21 22 23 23 24 25 26 26 27 27 28 29 29 30 31 31 30 32 34 35 36 37 38 38 39 39 40 41 41 42 42
51 51 52 53 53 53 52 50 47 45 43 42 41 41 40 38 37 37 37 36 35 33 32 30 29 28 28 28 26 25 25 26 26 26 26 25 24 23 23 23 23 22 21 21 20 20 20 19 19 18 17 18 18 19 20 22 22 22 22 23 24 25 25 25 25 26 27 28 29 28 28 29 31 32 33 34 35 35 36 36 37 38 39 40 41
52 53 53 53 52 52 51 49 47 44 42 41 39 39 38 37 36 36 36 35 34 32 31 30 29 28 27 27 26 25 24 24 24 25 25 24 23 23 22 22 22 21 20 19 19 19 19 18 18 17 17 17 18 19 20 21 21 21 21 22 23 23 24 24 24 25 26 27 27 26 26 27 29 30 31 32 33 33 33 34 35 36 37 39 39
53 53 53 52 52 51 50 49 46 43 41 40 38 36 36 35 34 34 34 34 33 32 31 29 28 28 27 26 26 25 24 23 23 23 23 23 23 22 22 22 22 21 20 18 17 17 18 18 17 17 16 16 17 18 19 20 20 21 21 22 22 23 23 23 24 24 25 25 24 22 23 25 26 28 29 30 31 31 32 33 34 34 35 36 37
53 53 52 51 51 49 49 47 44 42 40 38 36 35 33 33 32 32 32 32 31 30 30 29 28 27 27 26 26 26 25 23 22 22 23 22 22 22 21 21 22 22 20 18 17 16 17 17 17 17 16 15 16 17 17 18 19 20 21 22 23 23 23 23 24 24 24 23 21 20 22 24 25 26 27 28 29 30 31 32 33 33 34 34 35
53 53 51 50 49 47 46 45 42 40 39 37 35 33 32 31 31 31 31 31 30 29 29 28 27 27 26 26 25 25 25 24 23 22 22 22 22 22 21 20 20 21 21 19 18 17 16 17 17 16 16 16 15 15 15 16 17 19 21 23 23 23 22 23 24 24 23 21 20 20 22 24 25 25 26 27 28 29 30 31 31 32 32 32 33
53 51 49 47 46 45 44 42 40 39 37 35 33 32 30 30 30 30 29 29 29 29 28 27 27 26 26 26 25 24 24 24 23 22 20 20 20 22 22 21 20 19 19 20 19 18 17 17 16 15 15 16 15 14 14 14 16 19 20 21 21 21 22 24 25 24 22 20 20 20 22 23 25 25 26 26 27 28 29 30 30 30 30 31 31
51 49 47 44 43 43 42 40 39 37 35 33 32 31 30 30 29 29 29 28 28 29 29 28 27 27 26 26 26 25 24 24 23 22 21 20 18 19 20 22 22 20 19 19 19 19 19 18 17 16 15 15 15 14 13 13 15 18 19 19 19 20 22 25 26 24 22 20 20 20 21 22 23 24 25 26 26 27 28 29 30 30 30 30 30
Wind_Direction
275 276 278 280 282 283 282 281 278 276 276 276 276 274 268 264 260 255 249 244 243 244 246 246 243 239 238 242 245 245 244 240 237 237 240 244 244 244 246 248 253 257 258 259 258 258 257 253 252 249 242 239 242 248 251 248 246 245 242 242 244 245 247 247 245 244 243 242 241 240 240 241 242 242 242 242 242 242 240 239 239 239 239 237 237
275 277 280 282 284 284 282 280 277 275 276 276 278 279 276 271 266 261 255 249 244 242 244 245 243 240 238 241 242 239 239 242 242 240 240 243 244 240 238 241 248 254 255 256 257 257 257 258 257 251 243 239 240 247 252 250 247 246 245 245 247 249 250 249 247 244 243 243 244 243 242 242 242 243 242 242 243 242 241 239 238 237 237 236 235
275 277 279 282 283 283 280 277 275 274 275 277 279 281 282 281 275 269 262 255 249 243 241 242 243 240 236 238 242 239 236 240 244 244 243 243 244 241 238 236 240 246 248 249 251 255 257 260 261 254 245 241 239 243 245 247 247 246 248 250 251 251 250 249 248 246 245 244 243 242 242 242 242 242 242 242 243 243 242 241 238 235 234 233 233
276 279 281 284 286 285 285 283 283 282 277 275 276 279 281 285 287 285 276 267 260 250 243 239 240 241 236 233 238 240 240 240 238 239 243 243 240 240 240 236 235 240 245 245 245 249 254 258 260 255 249 246 245 243 239 238 241 245 250 255 255 252 250 250 249 248 247 245 244 243 242 242 242 242 243 244 244 244 243 240 237 234 232 232 232
285 290 292 296 301 303 307 308 308 305 298 291 287 289 293 295 300 303 304 291 278 265 251 243 239 240 240 236 235 235 239 247 244 237 239 239 235 236 238 236 235 236 240 243 242 244 247 251 255 254 251 251 253 253 245 237 236 240 245 251 253 251 250 251 249 246 246 245 245 245 243 243 244 247 248 247 245 244 242 240 237 234 232 232 232
313 322 326 327 331 333 335 334 332 329 324 323 321 321 319 316 317 314 316 314 302 291 271 255 245 241 241 241 240 235 235 244 250 244 242 238 232 232 233 234 236 235 235 239 241 243 245 245 246 249 251 252 254 257 253 245 238 235 235 238 242 244 246 247 245 243 243 242 243 244 244 243 243 244 244 244 244 243 242 240 237 234 232 231 232
334 342 345 343 344 342 340 339 341 342 341 341 338 335 331 324 321 318 316 316 311 306 296 285 265 249 246 245 247 247 240 239 242 242 243 241 233 229 227 227 230 231 231 235 238 241 245 244 242 243 247 249 252 255 255 252 246 241 237 233 232 235 240 243 243 242 240 240 242 244 246 244 241 238 239 241 242 242 242 240 238 235 233 231 231
338 341 340 338 337 333 332 333 333 334 335 337 334 334 335 331 328 326 323 319 313 309 301 296 295 276 260 253 254 260 258 250 247 246 245 244 240 233 229 228 228 227 227 230 234 237 241 243 243 243 244 246 249 252 255 255 253 248 244 240 234 232 236 240 240 239 239 238 239 243 246 246 242 239 238 239 241 241 240 239 239 237 236 235 234
334 333 330 328 327 324 324 324 323 322 320 320 321 322 325 326 327 327 326 324 316 311 307 300 297 295 287 275 266 268 273 268 262 261 260 257 250 242 236 234 234 236 232 228 230 234 238 241 243 243 243 244 245 248 251 254 254 251 248 246 243 238 237 237 236 236 236 234 234 236 240 243 242 240 237 236 238 239 239 238 238 239 239 239 239
326 325 324 322 321 319 319 318 317 316 315 312 311 310 310 310 312 314 317 321 320 315 311 306 300 295 291 288 282 276 277 279 275 271 270 268 262 253 246 242 239 244 248 237 230 231 234 237 240 242 243 243 243 245 247 248 250 251 250 249 248 246 244 241 238 235 234 232 230 231 234 238 241 240 239 239 239 239 240 239 238 239 241 242 243
323 322 321 320 318 317 316 314 313 312 311 310 309 306 304 302 300 301 303 306 310 313 312 310 306 302 296 289 286 283 279 277 276 273 270 269 267 262 257 255 250 248 253 249 239 236 235 235 236 239 242 244 245 246 247 247 246 247 249 249 248 247 247 245 243 240 236 233 230 230 232 235 239 241 242 243 243 242 241 240 240 240 242 242 242
325 323 322 320 318 316 315 314 314 313 312 311 310 308 306 303 300 297 296 296 296 298 302 305 306 305 303 298 292 288 285 281 278 276 274 270 268 268 266 264 260 256 256 254 247 244 244 242 238 237 238 241 244 246 247 248 247 245 246 247 247 245 244 244 244 242 240 236 232 232 233 233 236 240 242 242 243 243 241 239 238 239 241 242 243
327 326 325 323 320 319 318 317 315 315 314 313 313 312 311 309 306 302 298 296 294 292 290 293 296 298 299 300 298 294 290 287 284 281 280 278 274 272 273 271 268 263 261 259 253 248 248 249 246 243 240 239 241 244 246 247 247 246 245 244 245 244 243 242 240 239 239 238 235 234 234 232 232 235 240 241 242 243 241 237 235 234 236 238 240
330 329 328 327 325 323 322 320 317 315 314 314 314 315 315 314 312 309 305 302 298 296 293 290 289 290 291 292 293 294 293 290 288 284 282 282 280 278 277 276 274 271 268 264 260 255 252 251 249 248 246 243 241 241 243 244 244 244 243 241 241 241 241 241 240 237 236 236 236 235 235 234 233 235 237 239 240 242 243 240 237 234 233 233 234
332 331 331 329 328 327 325 323 320 318 317 316 315 315 316 315 313 311 309 307 304 301 299 296 292 290 289 288 286 286 288 288 288 287 283 281 279 279 279 278 277 275 273 270 266 262 257 254 251 249 248 247 245 243 242 243 244 243 242 240 239 239 238 239 240 239 237 235 234 234 234 235 236 238 238 238 238 241 244 242 238 235 234 234 234
330 329 329 328 327 327 326 324 321 320 319 317 316 316 315 313 310 308 307 307 306 305 303 301 299 297 295 292 288 284 282 282 282 283 283 281 279 277 276 275 276 276 275 272 269 266 263 259 256 252 249 248 247 246 245 244 244 245 245 243 242 240 238 237 238 239 238 237 236 234 234 233 234 237 239 239 239 240 241 242 240 238 236 237 237
325 322 322 322 322 323 322 320 319 319 319 317 317 317 316 314 310 309 308 307 306 306 305 304 303 301 300 298 294 290 285 281 279 277 277 278 277 276 274 272 271 271 272 272 271 268 265 263 260 257 254 250 248 247 246 246 245 245 246 245 245 243 240 236 235 236 236 237 237 236 234 233 232 234 236 237 239 238 238 240 241 240 239 239 239
318 316 316 316 317 317 317 316 317 318 318 318 319 320 319 317 313 311 311 310 309 308 307 306 305 303 302 301 299 297 292 287 282 278 276 275 274 273 271 270 269 267 267 267 268 267 266 265 263 260 257 254 251 248 246 246 246 245 246 245 245 244 242 239 236 236 236 236 236 235 235 233 233 233 233 234 235 236 236 238 240 241 240 241 242
314 312 312 312 312 313 313 315 316 318 318 319 319 319 317 315 312 311 310 310 309 308 307 306 305 304 303 303 302 300 298 294 289 284 279 276 274 272 270 268 266 265 265 263 263 263 263 263 263 262 260 258 256 252 249 247 246 246 246 245 244 244 244 244 242 240 239 238 238 236 235 233 233 234 234 233 233 233 234 236 238 239 240 241 242
310 309 309 310 310 311 312 314 315 316 316 316 315 313 312 310 308 307 306 306 306 306 306 304 303 303 303 303 303 302 300 298 295 290 286 281 278 274 271 268 266 264 263 262 261 260 260 259 259 259 260 259 258 256 253 251 248 246 245 245 244 243 243 244 245 244 242 240 240 239 238 236 233 234 234 233 233 232 232 234 236 238 239 239 240
308 308 308 309 310 312 313 313 314 313 312 311 309 308 307 306 305 303 303 305 306 306 305 303 302 302 302 303 303 303 301 300 298 294 291 288 284 280 275 272 268 264 263 261 260 260 259 258 257 256 256 257 257 257 256 255 252 248 246 245 244 244 244 242 242 244 244 242 241 241 242 240 237 235 233 233 233 233 233 233 234 235 237 237 239
310 309 309 310 310 312 313 312 311 310 309 308 306 306 306 305 304 304 304 306 307 307 305 303 302 302 303 303 303 303 302 300 298 296 294 291 289 287 284 280 274 268 264 262 260 259 258 257 257 255 254 254 255 255 256 256 255 253 249 247 246 245 244 243 242 241 242 243 242 241 240 241 241 239 235 233 232 232 233 233 233 234 234 235 237
313 311 310 309 309 311 311 310 308 308 309 309 309 309 308 306 305 303 304 305 305 305 303 302 301 301 301 301 300 300 299 297 296 295 293 292 290 289 288 287 283 277 271 265 262 260 259 257 256 255 255 253 253 253 254 254 254 254 252 250 249 248 246 245 244 243 241 241 242 242 240 239 239 239 238 235 232 231 231 232 232 232 232 233 235
314 312 311 309 309 310 309 308 308 309 311 312 312 311 308 306 305 304 304 304 303 302 300 300 299 299 298 297 296 294 293 292 292 291 290 289 288 288 287 286 285 283 279 274 267 263 261 259 257 255 254 253 253 252 252 252 252 252 253 252 251 250 249 247 245 245 244 242 241 242 241 240 239 238 237 236 234 232 231 231 231 231 232 233 233
314 312 311 310 310 310 309 309 310 311 312 313 312 311 309 307 305 304 304 302 301 299 297 296 296 295 294 293 292 291 289 288 287 286 286 285 285 285 285 284 284 283 283 280 276 270 266 263 259 257 255 253 253 252 251 251 251 250 250 251 250 249 249 249 247 246 246 245 243 242 241 241 242 240 238 236 236 234 233 231 231 232 233 235 236
314 311 310 311 311 311 311 311 311 311 312 313 312 310 308 307 306 304 303 302 299 297 295 293 292 290 290 289 288 287 286 285 285 284 283 282 282 281 281 281 281 281 281 281 280 278 275 270 265 260 258 255 253 252 250 250 250 249 248 248 249 248 247 248 248 247 246 246 245 244 241 241 242 243 242 239 238 237 235 233 232 233 235 236 238
313 312 312 313 313 312 312 311 312 312 312 312 310 308 307 307 306 304 304 303 301 298 295 292 290 289 287 286 286 286 285 285 284 283 283 282 281 280 279 278 278 278 278 278 278 278 278 276 271 265 262 259 255 253 250 249 248 249 248 247 247 246 245 245 246 246 246 246 245 245 244 242 241 242 242 242 242 240 239 237 235 234 235 236 238
312 313 314 314 313 313 313 313 312 312 312 311 309 308 307 307 306 305 304 304 302 300 298 295 293 291 289 288 287 286 286 285 285 284 284 284 283 282 281 280 279 277 277 276 277 277 277 277 274 270 266 262 259 254 251 249 247 247 248 247 245 245 245 243 243 244 245 245 245 245 244 244 243 242 242 242 243 243 243 242 240 239 238 238 239
314 315 315 314 314 314 312 312 311 311 312 311 310 309 309 307 306 305 304 304 303 301 300 298 296 295 293 292 290 289 287 286 286 286 285 286 286 285 284 284 282 280 279 278 277 277 276 275 274 272 268 265 262 258 254 251 248 246 246 247 246 245 244 243 242 242 242 243 244 244 244 244 244 244 243 242 242 243 243 244 243 242 241 240 239
316 316 316 315 313 311 310 310 311 312 312 311 310 310 309 308 307 306 305 305 305 304 302 301 299 298 297 295 293 291 289 288 287 287 287 287 286 286 285 285 284 282 281 280 278 277 275 274 273 271 268 266 264 261 258 253 250 247 246 245 245 244 244 243 242 241 240 241 241 242 243 244 244 243 243 243 243 242 243 243 243 242 242 241 240
316 316 315 313 311 309 309 310 311 312 312 311 309 309 308 308 307 307 307 307 307 306 305 303 301 300 298 296 295 293 291 290 289 288 288 287 287 287 286 284 283 282 281 280 278 277 275 273 271 269 267 266 264 263 260 257 252 248 247 245 244 243 243 243 242 241 240 239 239 240 240 241 243 243 243 243 243 243 243 243 243 242 242 242 241
316 315 313 311 310 310 312 312 313 313 311 310 309 308 307 307 307 307 308 309 308 307 305 304 302 301 299 297 297 295 294 292 291 289 289 288 288 287 286 284 283 282 281 280 279 277 275 272 271 269 268 266 265 263 261 259 254 250 248 246 244 242 242 242 242 241 240 239 239 238 239 239 240 242 242 242 242 243 243 243 243 242 243 243 243
315 313 312 311 312 313 313 314 313 312 310 309 308 307 306 306 307 308 309 308 307 307 306 305 304 302 301 300 298 297 295 294 293 292 291 290 289 288 287 286 285 283 282 281 280 278 276 274 272 271 269 267 265 262 260 259 256 252 250 248 245 243 242 241 240 240 240 240 239 238 238 238 239 239 240 241 241 242 242 243 242 242 242 242 243
313 312 312 312 313 314 314 313 312 310 309 308 308 307 306 306 307 307 308 308 307 307 307 307 305 304 303 301 300 298 297 296 296 295 293 292 291 289 288 287 286 284 282 280 279 277 276 274 273 272 271 269 266 262 260 258 256 254 251 250 247 244 242 241 240 239 239 240 239 238 237 237 238 238 239 239 240 240 240 241 241 241 241 242 242
313 312 312 312 313 313 313 312 311 310 309 308 308 307 306 306 307 308 308 308 308 309 309 307 306 305 304 302 300 299 298 297 296 294 293 293 292 290 289 287 285 283 282 280 279 278 276 275 273 272 271 268 266 264 261 259 256 254 252 250 248 245 243 241 240 238 238 238 238 238 237 237 237 238 238 238 238 238 239 239 239 239 240 240 241
312 312 312 312 313 313 312 312 311 310 310 310 308 307 307 307 308 308 308 308 308 308 308 307 307 306 304 302 300 299 297 296 295 294 293 293 292 291 291 289 287 286 284 283 281 279 277 275 273 272 270 269 267 265 262 258 254 251 249 248 247 245 243 241 239 237 237 237 237 237 237 237 237 237 238 238 238 238 238 238 238 239 239 239 240
311 311 311 312 312 312 311 311 310 310 311 311 309 308 307 307 307 307 307 307 307 306 307 307 307 306 304 302 300 298 296 295 295 295 294 294 294 294 294 293 292 291 290 289 287 284 280 277 275 273 272 270 268 264 260 255 252 249 248 245 243 242 241 239 237 236 237 238 237 237 236 236 237 237 237 239 239 239 239 238 238 238 239 239 239
311 311 312 312 312 312 311 310 310 311 311 311 310 308 307 306 307 307 306 306 305 306 307 309 308 307 306 303 300 298 297 296 296 295 295 295 296 295 295 295 294 295 295 294 292 289 285 282 279 277 274 272 268 264 260 255 252 250 249 247 245 243 243 241 239 238 239 239 239 238 237 236 236 236 237 238 239 240 240 240 239 239 239 239 239
311 312 314 313 312 312 311 310 311 311 311 311 310 309 307 307 307 307 306 306 305 307 309 310 310 309 307 305 301 299 297 297 296 296 296 297 297 296 296 296 296 296 297 296 294 290 287 285 282 279 276 273 269 265 260 255 250 247 246 246 245 243 242 241 240 239 239 239 239 239 238 238 237 236 235 236 238 240 240 240 241 241 240 240 240
313 314 314 314 312 312 311 310 311 311 312 312 311 309 308 307 307 306 306 306 306 308 309 310 310 310 308 306 303 300 298 298 297 297 298 298 298 297 297 297 297 298 298 297 295 292 289 286 282 279 276 272 269 265 259 252 245 241 241 242 242 241 239 238 238 238 238 238 239 239 239 240 240 239 237 236 236 238 239 240 240 241 241 241 241
315 315 315 313 312 311 310 310 311 311 311 312 311 310 309 308 307 306 306 306 306 308 308 309 310 310 309 307 304 301 300 300 299 298 299 299 298 297 297 297 297 297 297 297 296 293 291 288 283 278 274 269 264 261 256 250 243 238 236 236 238 239 238 237 237 237 238 238 238 238 239 239 240 240 240 238 237 237 238 239 240 240 241 242 241
316 316 315 313 311 310 310 310 310 311 311 311 310 309 308 308 307 307 306 306 306 307 308 308 309 310 309 307 305 303 302 301 300 299 298 299 298 297 296 297 297 297 298 298 297 295 292 289 285 279 274 268 264 260 256 251 245 240 236 236 237 238 238 238 237 236 235 236 236 237 237 238 239 240 240 240 239 238 238 239 240 240 241 241 242
317 317 315 313 311 311 311 311 311 311 311 310 308 307 307 307 307 307 306 306 306 306 307 308 308 308 308 306 305 305 304 303 301 299 299 299 298 296 297 298 298 298 298 298 297 296 293 290 286 281 277 273 269 264 259 252 247 244 242 241 241 240 239 238 237 235 235 236 236 236 236 236 237 238 239 239 239 239 239 240 241 241 242 242 243
318 317 316 314 312 312 312 312 312 312 311 310 307 306 306 306 306 306 305 305 306 306 306 307 306 306 306 305 305 306 305 304 302 300 300 300 299 297 298 298 297 297 297 297 296 294 292 290 286 282 277 272 267 262 257 252 248 245 244 244 244 243 241 240 239 238 238 237 237 237 236 236 236 237 237 238 238 238 239 239 240 241 241 241 242
319 317 316 314 313 313 313 313 313 313 311 308 306 305 305 306 305 305 304 305 305 305 306 306 306 305 304 304 305 306 306 305 304 303 302 302 300 299 298 297 296 295 296 296 295 293 292 290 286 281 275 269 264 259 253 249 247 244 243 243 245 246 245 243 241 240 239 237 236 236 237 237 237 237 237 237 238 239 239 238 238 239 240 241 241
319 317 316 315 314 314 314 314 314 312 310 308 306 305 305 305 305 303 303 304 305 305 305 305 305 304 304 303 304 305 305 305 305 305 305 304 303 302 300 297 296 295 295 295 293 292 291 290 286 282 275 269 263 259 253 250 246 243 241 241 242 244 245 245 244 243 241 239 237 237 238 238 238 238 239 239 239 240 240 239 239 239 240 242 243
318 318 318 318 317 317 316 315 315 313 310 308 307 306 305 305 304 303 302 303 304 304 304 304 304 304 303 303 304 304 304 304 304 305 305 305 304 303 301 299 297 295 295 295 294 292 291 289 287 283 278 272 266 261 257 252 247 243 239 238 239 241 243 244 244 243 242 241 240 238 238 238 239 239 239 240 240 240 240 240 241 241 241 242 243
319 320 320 320 320 319 318 317 316 314 312 310 309 308 306 304 303 302 302 302 303 302 302 303 303 303 303 304 304 304 304 304 303 303 304 304 303 302 301 299 297 296 296 295 294 293 292 290 288 285 282 277 271 265 261 255 249 244 240 236 235 236 238 241 243 243 243 242 240 237 235 235 236 237 238 238 239 239 240 241 241 242 242 242 242
322 322 322 322 322 320 319 318 317 315 313 312 311 308 306 304 303 302 302 301 301 301 302 301 301 301 302 303 303 303 303 302 301 301 302 302 302 301 300 298 297 297 297 297 295 293 291 288 286 286 285 281 275 270 265 259 252 247 241 237 235 232 233 238 240 241 241 240 236 233 232 231 231 232 234 235 236 237 238 239 240 241 241 242 243
322 322 323 323 323 322 320 319 317 316 314 313 312 309 307 305 303 303 302 301 300 301 301 301 300 300 301 302 302 301 301 300 300 299 298 299 300 301 301 300 298 297 297 297 296 294 291 289 287 285 284 282 278 272 266 260 255 251 246 241 238 233 232 235 237 237 237 236 233 230 229 229 229 229 230 231 232 235 236 237 238 239 241 242 243
323 323 324 325 325 324 321 319 317 316 315 315 313 310 308 305 304 303 302 301 301 300 300 300 300 300 300 300 300 300 299 298 299 299 298 297 296 297 299 299 298 298 296 295 294 292 290 290 290 288 284 282 280 276 271 263 257 255 252 246 239 234 231 233 235 235 233 230 229 228 228 229 228 229 229 229 229 232 234 235 235 237 238 240 242